• In Romania
  • List of Countries
  • For 7 days
  • Water Temperature
  • Satellite Maps
  • Weather Map
  • Weather Widgets
  • user-avatar
    Login

    Hourly Weather Solovo

    Today, 25 June, Monday

    Time Temperature Precipitation Wind Pressure Humidity
    00:00 +9°C° 0 mm 2 mps 744 mmHg 97%
    01:00 +9°C° 0 mm 2 mps 745 mmHg 97%
    02:00 +8°C° 0 mm 2 mps 745 mmHg 98%
    03:00 +9°C° 0 mm 2 mps 745 mmHg 96%
    04:00 +9°C° 0 mm 2 mps 746 mmHg 95%
    05:00 +10°C° 0 mm 2 mps 746 mmHg 94%
    06:00 +13°C° 0 mm 2 mps 746 mmHg 84%
    07:00 +15°C° 0 mm 2 mps 746 mmHg 74%
    08:00 +17°C° 0 mm 3 mps 746 mmHg 64%
    09:00 +18°C° 0 mm 3 mps 746 mmHg 59%
    10:00 +19°C° 0 mm 3 mps 746 mmHg 53%
    11:00 +21°C° 0 mm 4 mps 746 mmHg 48%
    12:00 +21°C° 0.1 mm 4 mps 747 mmHg 49%
    13:00 +21°C° 0.1 mm 4 mps 747 mmHg 50%
    14:00 +21°C° 0.1 mm 4 mps 747 mmHg 51%
    15:00 +21°C° 0.1 mm 4 mps 747 mmHg 54%
    16:00 +20°C° 0.1 mm 4 mps 747 mmHg 57%
    17:00 +20°C° 0.1 mm 3 mps 748 mmHg 60%
    18:00 +18°C° 0 mm 3 mps 748 mmHg 69%
    19:00 +17°C° 0 mm 2 mps 748 mmHg 77%
    20:00 +15°C° 0 mm 2 mps 748 mmHg 85%
    21:00 +14°C° 0 mm 2 mps 748 mmHg 89%
    22:00 +13°C° 0 mm 2 mps 749 mmHg 93%
    23:00 +12°C° 0 mm 2 mps 749 mmHg 96%

    Tomorrow, 26 June, Tuesday

    Time Temperature Precipitation Wind Pressure Humidity
    00:00 +12°C° 0 mm 1 mps 749 mmHg 96%
    01:00 +11°C° 0 mm 1 mps 750 mmHg 97%
    02:00 +11°C° 0 mm 1 mps 750 mmHg 97%
    03:00 +11°C° 0 mm 1 mps 750 mmHg 96%
    04:00 +12°C° 0 mm 1 mps 751 mmHg 94%
    05:00 +12°C° 0 mm 1 mps 751 mmHg 93%
    06:00 +14°C° 0 mm 1 mps 751 mmHg 84%
    07:00 +18°C° 0 mm 1 mps 751 mmHg 74%
    08:00 +19°C° 0 mm 2 mps 751 mmHg 65%
    09:00 +20°C° 0 mm 2 mps 752 mmHg 59%
    10:00 +23°C° 0 mm 2 mps 752 mmHg 53%
    11:00 +24°C° 0 mm 2 mps 752 mmHg 47%
    12:00 +24°C° 0 mm 2 mps 752 mmHg 47%
    13:00 +25°C° 0 mm 2 mps 752 mmHg 46%
    14:00 +25°C° 0 mm 2 mps 752 mmHg 46%
    15:00 +25°C° 0 mm 1 mps 752 mmHg 47%
    16:00 +25°C° 0 mm 1 mps 752 mmHg 49%
    17:00 +25°C° 0 mm 1 mps 752 mmHg 50%
    18:00 +23°C° 0.1 mm 1 mps 752 mmHg 59%
    19:00 +21°C° 0.1 mm 1 mps 752 mmHg 67%
    20:00 +19°C° 0.1 mm 1 mps 752 mmHg 76%
    21:00 +18°C° 0 mm 1 mps 752 mmHg 79%
    22:00 +18°C° 0 mm 1 mps 752 mmHg 82%
    23:00 +16°C° 0 mm 1 mps 752 mmHg 84%

    Day after tomorrow, 27 June, Wednesday

    Time Temperature Precipitation Wind Pressure Humidity
    00:00 +15°C° 0 mm 1 mps 753 mmHg 86%
    01:00 +15°C° 0 mm 1 mps 753 mmHg 88%
    02:00 +14°C° 0 mm 1 mps 753 mmHg 90%
    03:00 +15°C° 0 mm 1 mps 753 mmHg 89%
    04:00 +15°C° 0 mm 1 mps 753 mmHg 88%
    05:00 +15°C° 0 mm 2 mps 753 mmHg 87%
    06:00 +18°C° 0 mm 2 mps 753 mmHg 78%
    07:00 +20°C° 0 mm 2 mps 754 mmHg 70%
    08:00 +23°C° 0 mm 2 mps 754 mmHg 62%
    09:00 +24°C° 0 mm 2 mps 754 mmHg 55%
    10:00 +26°C° 0 mm 3 mps 754 mmHg 49%
    11:00 +27°C° 0 mm 3 mps 754 mmHg 42%
    12:00 +28°C° 0 mm 3 mps 753 mmHg 42%
    13:00 +28°C° 0 mm 3 mps 753 mmHg 41%
    14:00 +28°C° 0 mm 3 mps 753 mmHg 40%
    15:00 +28°C° 0 mm 3 mps 753 mmHg 45%
    16:00 +27°C° 0 mm 3 mps 753 mmHg 49%
    17:00 +26°C° 0 mm 2 mps 753 mmHg 53%
    18:00 +25°C° 0 mm 2 mps 753 mmHg 60%
    19:00 +23°C° 0 mm 2 mps 753 mmHg 67%
    20:00 +21°C° 0 mm 2 mps 753 mmHg 75%
    21:00 +19°C° 0 mm 2 mps 753 mmHg 77%
    22:00 +18°C° 0 mm 2 mps 753 mmHg 79%
    23:00 +17°C° 0 mm 2 mps 753 mmHg 81%

    28 June, Thursday

    Time Temperature Precipitation Wind Pressure Humidity
    00:00 +17°C° 0 mm 2 mps 753 mmHg 82%
    01:00 +16°C° 0 mm 2 mps 753 mmHg 83%
    02:00 +16°C° 0 mm 2 mps 753 mmHg 84%
    03:00 +16°C° 0 mm 2 mps 753 mmHg 82%
    04:00 +17°C° 0 mm 3 mps 753 mmHg 81%
    05:00 +17°C° 0 mm 3 mps 753 mmHg 79%
    06:00 +19°C° 0 mm 3 mps 753 mmHg 72%
    07:00 +21°C° 0 mm 3 mps 753 mmHg 65%
    08:00 +24°C° 0 mm 3 mps 753 mmHg 59%
    09:00 +26°C° 0 mm 4 mps 753 mmHg 53%
    10:00 +27°C° 0 mm 4 mps 752 mmHg 47%
    11:00 +28°C° 0 mm 4 mps 752 mmHg 42%
    12:00 +29°C° 0 mm 4 mps 752 mmHg 41%
    13:00 +29°C° 0 mm 4 mps 752 mmHg 40%
    14:00 +29°C° 0 mm 4 mps 751 mmHg 39%
    15:00 +29°C° 0 mm 4 mps 751 mmHg 41%
    16:00 +29°C° 0 mm 4 mps 751 mmHg 44%
    17:00 +28°C° 0 mm 3 mps 750 mmHg 46%
    18:00 +26°C° 0 mm 3 mps 750 mmHg 55%
    19:00 +25°C° 0 mm 3 mps 750 mmHg 64%
    20:00 +23°C° 0 mm 2 mps 749 mmHg 73%
    21:00 +21°C° 0 mm 2 mps 749 mmHg 75%
    22:00 +20°C° 0 mm 2 mps 749 mmHg 77%
    23:00 +19°C° 0 mm 2 mps 749 mmHg 79%

    29 June, Friday

    Time Temperature Precipitation Wind Pressure Humidity
    00:00 +19°C° 0 mm 3 mps 749 mmHg 79%
    01:00 +18°C° 0 mm 3 mps 749 mmHg 79%
    02:00 +18°C° 0 mm 3 mps 749 mmHg 78%
    03:00 +18°C° 0 mm 3 mps 748 mmHg 78%
    04:00 +18°C° 0 mm 3 mps 748 mmHg 77%
    05:00 +18°C° 0 mm 3 mps 748 mmHg 77%
    06:00 +20°C° 0 mm 3 mps 748 mmHg 72%
    07:00 +22°C° 0 mm 4 mps 747 mmHg 67%
    08:00 +25°C° 0 mm 4 mps 747 mmHg 62%
    09:00 +26°C° 0 mm 4 mps 747 mmHg 56%
    10:00 +28°C° 0 mm 5 mps 747 mmHg 51%
    11:00 +29°C° 0 mm 5 mps 746 mmHg 46%
    12:00 +30°C° 0 mm 5 mps 746 mmHg 45%
    13:00 +30°C° 0 mm 5 mps 745 mmHg 43%
    14:00 +32°C° 0 mm 5 mps 745 mmHg 41%
    15:00 +30°C° 0 mm 5 mps 744 mmHg 43%
    16:00 +30°C° 0 mm 5 mps 744 mmHg 44%
    17:00 +29°C° 0 mm 5 mps 743 mmHg 46%
    18:00 +28°C° 0 mm 4 mps 743 mmHg 55%
    19:00 +26°C° 0 mm 4 mps 743 mmHg 63%
    20:00 +23°C° 0 mm 4 mps 742 mmHg 71%
    21:00 +23°C° 0.4 mm 4 mps 742 mmHg 77%
    22:00 +22°C° 0.4 mm 4 mps 742 mmHg 83%
    23:00 +21°C° 0.4 mm 4 mps 742 mmHg 89%

    30 June, Saturday

    Time Temperature Precipitation Wind Pressure Humidity
    00:00 +21°C° 0 mm 4 mps 742 mmHg 90%
    01:00 +20°C° 0 mm 4 mps 742 mmHg 92%
    02:00 +20°C° 0 mm 4 mps 741 mmHg 93%
    03:00 +20°C° 0 mm 3 mps 741 mmHg 93%
    04:00 +20°C° 0 mm 3 mps 741 mmHg 93%
    05:00 +20°C° 0 mm 3 mps 741 mmHg 93%
    06:00 +22°C° 0 mm 3 mps 741 mmHg 87%
    07:00 +23°C° 0 mm 4 mps 741 mmHg 81%
    08:00 +25°C° 0 mm 4 mps 741 mmHg 76%
    09:00 +26°C° 0 mm 4 mps 741 mmHg 72%
    10:00 +27°C° 0 mm 4 mps 741 mmHg 69%
    11:00 +28°C° 0 mm 5 mps 741 mmHg 65%
    12:00 +29°C° 0 mm 5 mps 741 mmHg 63%
    13:00 +30°C° 0 mm 4 mps 741 mmHg 62%
    14:00 +30°C° 0 mm 4 mps 741 mmHg 60%
    15:00 +30°C° 0.8 mm 4 mps 741 mmHg 65%
    16:00 +29°C° 0.8 mm 3 mps 741 mmHg 69%
    17:00 +29°C° 0.8 mm 3 mps 741 mmHg 74%
    18:00 +27°C° 0.8 mm 3 mps 741 mmHg 80%
    19:00 +26°C° 0.8 mm 2 mps 741 mmHg 86%
    20:00 +24°C° 0.8 mm 2 mps 741 mmHg 92%
    21:00 +24°C° 0.3 mm 2 mps 741 mmHg 94%
    22:00 +23°C° 0.3 mm 2 mps 741 mmHg 95%
    23:00 +21°C° 0.3 mm 2 mps 741 mmHg 97%
    Show more